Tracking 19717 objects as of 25-Jun-2019
HD Live streaming from Space Station
objects crossing your sky now

DELTA 1 DEB

Track DELTA 1 DEB now!
10-day predictions


NORAD ID: 37639
Int'l Code: 1978-026JA
Perigee: 873.5 km
Apogee: 1,047.4 km
Inclination: 98.8 °
Period: 104.1 minutes
Semi major axis: 7331 km
RCS: 0.0118 m2 (small)
Launch date: March 5, 1978
Source: United States (US)
Launch site: AIR FORCE WESTERN TEST RANGE (AFWTR)

Note: This is SATELLITE DEBRIS
aabbcc
Your satellite tracking list
Your tracking list is empty




NASA's NSSDC Master Catalog

Two Line Element Set (TLE):
1 37639U 78026JA  19175.30107933 -.00000016  00000-0  20085-4 0  9997
2 37639  98.7631 205.0067 0118618  90.3706 329.5127 13.82991071919788
Source of the keplerian elements: AFSPC